CQ0XPA-11 SANTAREM PT current weather conditions

sailwx.info

Wind from 157

Air temperature 3.9° C
Dewpoint 2.4° C

Last reported at 2017-Nov-19 03:04 UTC.
Time now 2017-Nov-19 03:16 UTC

Location: N 39°13' W 008°25'.
View on Google Maps.

See reports from other nearby stations

  
Tides and Currents Weather Stations Pressure Air Temp Water Temp Dewpoint Dewpoint Depression Visibility Wind Speed Wind Dir Waves Ship Positions
date/time (UTC)wind fromknots sea level pressurealtimeterstation pressurevisibilityair tempwater tempwave heightnotes
2017-Nov-19 03:04 157 3.9
2017-Nov-19 02:58 135 4.4
2017-Nov-19 02:54 157 4.4
2017-Nov-19 02:48 180 4.4
2017-Nov-19 02:44 180 4.4
2017-Nov-19 02:38 4.4
2017-Nov-19 02:34 4.4
2017-Nov-19 02:30 4.4
2017-Nov-19 02:23 4.4
2017-Nov-19 02:19 4.4
2017-Nov-19 02:13 5.0
2017-Nov-19 02:09 5.0
2017-Nov-19 01:59 5.0
2017-Nov-19 01:53 5.6
2017-Nov-19 01:49 157 5.6
2017-Nov-19 01:43 157 5.6
2017-Nov-19 01:39 157 5.6
2017-Nov-19 01:35 157 5.6
2017-Nov-19 01:28 157 6.1
2017-Nov-19 01:24 157 6.1
2017-Nov-19 01:18 157 6.1
2017-Nov-19 01:14 157 6.1
2017-Nov-19 01:08 157 6.1
2017-Nov-19 01:04 135 6.7
2017-Nov-19 00:58 135 6.7
2017-Nov-19 00:54 022 6.7
2017-Nov-19 00:48 270 7.2
2017-Nov-19 00:44 270 7.2
2017-Nov-19 00:40 270 7.2
2017-Nov-19 00:34 157 7.2
2017-Nov-19 00:29 157 7.2
2017-Nov-19 00:23 157 6.7
2017-Nov-19 00:19 135 6.7
2017-Nov-19 00:13 135 7.2
2017-Nov-19 00:09 135 7.2
2017-Nov-19 00:03 135 7.2
2017-Nov-18 23:55 135 7.8
2017-Nov-18 23:43 135 7.8
2017-Nov-18 23:39 135 7.8
2017-Nov-18 23:35 135 7.8
2017-Nov-18 23:28 135 7.8
2017-Nov-18 23:24 135 7.8
2017-Nov-18 23:18 135 7.8
2017-Nov-18 23:14 135 7.8
2017-Nov-18 23:08 135 7.8
2017-Nov-18 23:04 180 8.3
2017-Nov-18 22:56 090 8.3
2017-Nov-18 22:54 090 8.3
2017-Nov-18 22:48 090 8.3
2017-Nov-18 22:44 090 8.9
2017-Nov-18 22:40 180 8.9
2017-Nov-18 22:34 180 9.4
2017-Nov-18 22:29 180 9.4
2017-Nov-18 22:23 180 10.0
2017-Nov-18 22:19 180 10.0
2017-Nov-18 22:13 180 10.6
2017-Nov-18 22:09 180 10.6
2017-Nov-18 22:03 135 11.1
2017-Nov-18 21:59 135 11.1
2017-Nov-18 21:53 135 11.7
2017-Nov-18 21:49 11.1
2017-Nov-18 21:45 135 11.1
2017-Nov-18 21:39 270 10.6
2017-Nov-18 21:35 9.4
2017-Nov-18 21:28 292 0 gusting 1 8.9
2017-Nov-18 21:24 180 0 gusting 1 8.3
2017-Nov-18 21:18 7.8
2017-Nov-18 21:14 135 7.8
2017-Nov-18 21:08 180 8.3
2017-Nov-18 21:04 180 8.3
2017-Nov-18 20:58 8.9
2017-Nov-18 20:54 8.9
2017-Nov-18 20:48 315 9.4
2017-Nov-18 20:44 157 9.4
2017-Nov-18 20:40 270 9.4
2017-Nov-18 20:33 157 10.0
2017-Nov-18 20:29 270 10.0
2017-Nov-18 20:23 10.6
2017-Nov-18 20:19 10.6
2017-Nov-18 20:13 045 11.1
2017-Nov-18 20:09 045 11.1
2017-Nov-18 20:03 045 11.7
2017-Nov-18 19:59 270 12.2
2017-Nov-18 19:53 180 12.8
2017-Nov-18 19:49 180 13.3
2017-Nov-18 19:45 157 13.3
2017-Nov-18 19:39 270 13.9
2017-Nov-18 19:34 315 14.4
2017-Nov-18 19:28 180 1 gusting 1 14.4
2017-Nov-18 19:24 135 14.4
2017-Nov-18 19:18 180 14.4
2017-Nov-18 19:14 180 14.4
2017-Nov-18 19:08 303 0 gusting 1 13.9
2017-Nov-18 19:04 180 13.9
2017-Nov-18 18:58 180 13.9
2017-Nov-18 18:54 180 14.4
2017-Nov-18 18:50 270 14.4
2017-Nov-18 18:44 14.4
2017-Nov-18 18:40 135 14.4
2017-Nov-18 18:33 135 15.0
2017-Nov-18 18:29 090 15.0
2017-Nov-18 18:23 090 15.6
2017-Nov-18 18:19 180 15.6
2017-Nov-18 18:13 270 16.1
2017-Nov-18 18:09 16.1
2017-Nov-18 18:03 157 16.7
2017-Nov-18 17:59 045 16.7
2017-Nov-18 17:53 045 16.7
2017-Nov-18 17:47 045 17.2
2017-Nov-18 17:45 045 17.2
2017-Nov-18 17:38 045 17.8
2017-Nov-18 17:34 045 18.3
2017-Nov-18 17:28 045 18.3
2017-Nov-18 17:24 090 18.9
2017-Nov-18 17:18 315 19.4
2017-Nov-18 17:14 135 20.0
2017-Nov-18 17:08 157 20.6
2017-Nov-18 17:04 180 21.1
2017-Nov-18 16:58 270 21.1
2017-Nov-18 16:54 270 21.7
2017-Nov-18 16:50 270 21.7
2017-Nov-18 16:44 157 0 gusting 0 22.2
2017-Nov-18 16:39 157 22.2
2017-Nov-18 16:33 157 22.2
2017-Nov-18 16:29 157 22.8
2017-Nov-18 16:23 270 22.8
2017-Nov-18 16:19 22.8
2017-Nov-18 16:13 157 1 gusting 2 22.8
2017-Nov-18 16:09 157 23.3
2017-Nov-18 15:51 180 0 gusting 1 23.9
2017-Nov-18 15:45 090 23.9
2017-Nov-18 15:38 24.4
2017-Nov-18 15:34 180 23.9
2017-Nov-18 15:28 23.9
2017-Nov-18 15:24 157 1 gusting 3 23.9
2017-Nov-18 15:18 348 1 gusting 3 23.9
2017-Nov-18 15:14 23.9
2017-Nov-18 15:06 157 0 gusting 2 23.9
2017-Nov-18 15:04 23.9
2017-Nov-18 14:58 23.9
2017-Nov-18 14:54 23.9
2017-Nov-18 14:50 303 0 gusting 0 23.9
2017-Nov-18 14:44 270 23.9
2017-Nov-18 14:39 23.9
2017-Nov-18 14:33 23.9
2017-Nov-18 14:29 191 23.3
2017-Nov-18 14:23 157 23.3
2017-Nov-18 14:19 270 2 gusting 3 23.3
2017-Nov-18 14:13 180 23.3
2017-Nov-18 14:09 270 0 gusting 1 23.3
2017-Nov-18 14:03 270 0 gusting 3 23.3
2017-Nov-18 13:59 157 1 gusting 3 23.3
2017-Nov-18 13:55 337 0 gusting 2 23.9
2017-Nov-18 13:49 090 23.3
2017-Nov-18 13:44 337 23.3
2017-Nov-18 13:38 157 0 gusting 2 23.3
2017-Nov-18 13:34 135 0 gusting 1 23.3
2017-Nov-18 13:28 337 0 gusting 1 23.3
2017-Nov-18 13:24 270 0 gusting 2 23.3
2017-Nov-18 13:18 180 2 gusting 2 22.8
2017-Nov-18 13:14 337 0 gusting 2 22.8
2017-Nov-18 13:08 180 22.2
2017-Nov-18 13:04 180 1 gusting 2 22.2
2017-Nov-18 13:00 180 21.7
2017-Nov-18 12:54 270 21.1
2017-Nov-18 12:49 202 0 gusting 2 20.6
2017-Nov-18 12:43 157 2 gusting 3 20.0
2017-Nov-18 12:37 270 19.4
2017-Nov-18 12:33 135 0 gusting 3 19.4
2017-Nov-18 12:29 135 2 gusting 3 19.4
2017-Nov-18 12:23 135 0 gusting 3 18.9
2017-Nov-18 12:19 135 1 gusting 3 18.3
2017-Nov-18 12:13 135 0 gusting 5 17.8
2017-Nov-18 12:09 157 5 gusting 5 17.8
2017-Nov-18 12:05 270 0 gusting 3 17.8
2017-Nov-18 11:59 168 3 gusting 3 17.2
2017-Nov-18 11:55 157 0 gusting 3 16.7
2017-Nov-18 11:48 157 1 gusting 5 16.7
2017-Nov-18 11:44 16.7
2017-Nov-18 11:38 270 3 gusting 3 16.1
2017-Nov-18 11:34 135 0 gusting 2 15.6
2017-Nov-18 11:28 157 0 gusting 3 15.6
2017-Nov-18 11:24 157 1 gusting 2 15.0
2017-Nov-18 11:18 15.0
2017-Nov-18 11:14 157 1 gusting 2 14.4
2017-Nov-18 11:08 157 1 gusting 1 13.9
2017-Nov-18 11:04 157 2 gusting 3 13.9
2017-Nov-18 11:00 135 13.3
2017-Nov-18 10:53 157 1 gusting 2 12.8
2017-Nov-18 10:49 157 12.2
2017-Nov-18 10:43 157 0 gusting 3 12.2
2017-Nov-18 10:39 157 0 gusting 3 11.7
2017-Nov-18 10:33 157 1 gusting 2 11.7
2017-Nov-18 10:29 270 0 gusting 2 11.7
2017-Nov-18 10:23 157 1 gusting 1 11.1
2017-Nov-18 10:19 157 0 gusting 2 10.6
2017-Nov-18 10:13 157 10.6
2017-Nov-18 10:09 270 0 gusting 1 10.0
2017-Nov-18 10:05 270 9.4
2017-Nov-18 09:59 270 0 gusting 2 9.4
2017-Nov-18 09:54 337 8.9
2017-Nov-18 09:48 270 0 gusting 2 8.3
2017-Nov-18 09:44 157 1 gusting 1 8.3
2017-Nov-18 09:38 157 0 gusting 2 8.3
2017-Nov-18 09:34 146 0 gusting 1 8.3
2017-Nov-18 09:26 180 7.8
2017-Nov-18 09:24 337 7.8
2017-Nov-18 09:18 180 7.2
2017-Nov-18 09:14 180 6.7
2017-Nov-18 09:10 180 5.6
2017-Nov-18 09:04 270 5.0
2017-Nov-18 09:00 135 0 gusting 0 5.0
2017-Nov-18 08:53 135 1 gusting 1 4.4
2017-Nov-18 08:49 270 4.4
2017-Nov-18 08:43 270 4.4
2017-Nov-18 08:39 135 3.9
2017-Nov-18 08:33 135 3.3
2017-Nov-18 08:29 135 3.3
2017-Nov-18 08:23 135 2.8
2017-Nov-18 08:19 135 2.2
2017-Nov-18 08:09 135 1.7
2017-Nov-18 08:05 135 1.7
2017-Nov-18 07:50 135 1.1
2017-Nov-18 07:46 135 1.1
2017-Nov-18 07:44 135 1.1
2017-Nov-18 07:38 135 1.1
2017-Nov-18 07:32 135 1.1
2017-Nov-18 07:26 135 1.1
2017-Nov-18 07:24 135 1.1
2017-Nov-18 07:18 135 1.1
2017-Nov-18 07:14 135 1.1
2017-Nov-18 07:10 135 1.1
2017-Nov-18 07:04 135 1.1
2017-Nov-18 06:59 292 1.1
2017-Nov-18 06:53 292 1.7
2017-Nov-18 06:49 1.7
2017-Nov-18 06:43 1.7
2017-Nov-18 06:39 1.7
2017-Nov-18 06:33 1.7
2017-Nov-18 06:29 1.7
2017-Nov-18 06:23 1.7
2017-Nov-18 06:19 2.2
2017-Nov-18 06:15 2.2
2017-Nov-18 06:09 2.2
2017-Nov-18 06:05 337 2.2
2017-Nov-18 05:58 337 2.2
2017-Nov-18 05:54 337 2.2
2017-Nov-18 05:48 2.2
2017-Nov-18 05:44 135 2.2
2017-Nov-18 05:38 135 2.2
2017-Nov-18 05:34 135 2.2
2017-Nov-18 05:28 135 2.2
2017-Nov-18 05:24 135 2.2
2017-Nov-18 05:18 135 2.2
2017-Nov-18 05:14 135 2.2
2017-Nov-18 05:10 135 2.2
2017-Nov-18 05:03 135 2.8
2017-Nov-18 04:59 135 2.8
2017-Nov-18 04:53 135 2.2
2017-Nov-18 04:49 135 2.8
2017-Nov-18 04:43 135 2.8
2017-Nov-18 04:39 135 2.2
2017-Nov-18 04:33 135 2.8
2017-Nov-18 04:29 135 2.8
2017-Nov-18 04:23 135 2.8
2017-Nov-18 04:19 135 2.8
2017-Nov-18 04:15 135 2.8
2017-Nov-18 04:09 135 2.8
2017-Nov-18 04:04 135 2.8
2017-Nov-18 03:58 135 2.8
2017-Nov-18 03:54 135 2.8
2017-Nov-18 03:48 135 2.8
2017-Nov-18 03:44 135 2.8
2017-Nov-18 03:38 135 3.3
2017-Nov-18 03:34 135 3.3
2017-Nov-18 03:28 135 2.8
2017-Nov-18 03:24 135 2.8
2017-Nov-18 03:20 135 2.8
2017-Nov-18 03:14 135 3.3
2017-Nov-18 03:10 270 3.3
2017-Nov-18 03:03 270 3.3
2017-Nov-18 02:59 270 3.9
2017-Nov-18 02:53 270 3.9
2017-Nov-18 02:49 270 3.9
2017-Nov-18 02:43 270 3.9
2017-Nov-18 02:39 180 3.3
2017-Nov-18 02:33 180 3.9
2017-Nov-18 02:29 180 3.9
2017-Nov-18 02:25 180 3.9
2017-Nov-18 02:19 180 3.9
2017-Nov-18 02:15 180 3.9
2017-Nov-18 02:08 180 3.9
2017-Nov-18 02:04 180 3.9
2017-Nov-18 01:58 180 3.9
2017-Nov-18 01:54 180 3.9
2017-Nov-18 01:48 180 3.9
2017-Nov-18 01:44 180 3.9
2017-Nov-18 01:38 180 3.9
2017-Nov-18 01:34 180 3.9
2017-Nov-18 01:28 180 4.4
2017-Nov-18 01:24 180 4.4
2017-Nov-18 01:20 180 4.4
2017-Nov-18 01:14 180 4.4
2017-Nov-18 01:09 270 4.4
2017-Nov-18 01:03 270 4.4
2017-Nov-18 00:59 270 4.4
2017-Nov-18 00:53 270 4.4
2017-Nov-18 00:49 270 4.4
2017-Nov-18 00:43 270 4.4
2017-Nov-18 00:39 270 4.4
2017-Nov-18 00:33 270 4.4
2017-Nov-18 00:29 270 4.4
2017-Nov-18 00:25 270 4.4
2017-Nov-18 00:19 270 4.4
2017-Nov-18 00:15 270 4.4
2017-Nov-18 00:08 180 5.0
2017-Nov-18 00:04 180 5.0
2017-Nov-17 23:56 180 5.0
2017-Nov-17 23:44 180 5.6
2017-Nov-17 23:38 180 5.6
2017-Nov-17 23:34 180 6.1
2017-Nov-17 23:28 180 6.1
2017-Nov-17 23:24 180 6.7
2017-Nov-17 23:20 270 6.7
2017-Nov-17 23:14 090 6.7
2017-Nov-17 23:09 090 6.7
2017-Nov-17 23:03 090 6.7
2017-Nov-17 22:59 090 6.7
2017-Nov-17 22:53 090 7.2
2017-Nov-17 22:49 135 7.2
2017-Nov-17 22:41 090 0 gusting 0 7.8
2017-Nov-17 22:39 090 7.8
2017-Nov-17 22:35 180 8.3
2017-Nov-17 22:29 270 8.3
2017-Nov-17 22:25 135 8.3
2017-Nov-17 22:18 135 8.9
2017-Nov-17 22:14 9.4
2017-Nov-17 22:08 9.4
2017-Nov-17 22:04 9.4
2017-Nov-17 21:58 9.4
2017-Nov-17 21:54 270 9.4
2017-Nov-17 21:48 292 10.0
2017-Nov-17 21:44 180 10.6
2017-Nov-17 21:38 180 11.1
2017-Nov-17 21:34 180 11.1
2017-Nov-17 21:30 135 11.1
2017-Nov-17 21:24 202 11.7
2017-Nov-17 21:19 135 11.7
2017-Nov-17 21:13 135 0 gusting 1 11.1
2017-Nov-17 21:09 180 10.6
2017-Nov-17 21:03 180 10.0
2017-Nov-17 20:59 270 10.0
2017-Nov-17 20:53 180 9.4
2017-Nov-17 20:49 180 8.9
2017-Nov-17 20:43 180 8.3
2017-Nov-17 20:39 180 8.3
2017-Nov-17 20:35 270 8.3
2017-Nov-17 20:29 8.9
2017-Nov-17 20:25 270 8.9
2017-Nov-17 20:18 180 8.9
2017-Nov-17 20:14 270 8.9
2017-Nov-17 20:08 180 8.9
2017-Nov-17 20:04 270 9.4
2017-Nov-17 19:58 270 9.4
2017-Nov-17 19:54 270 9.4
2017-Nov-17 19:48 270 10.0
2017-Nov-17 19:44 270 10.0
2017-Nov-17 19:40 270 10.6
2017-Nov-17 19:34 270 10.6
2017-Nov-17 19:29 090 10.6
2017-Nov-17 19:23 067 10.6
2017-Nov-17 19:19 180 10.6
2017-Nov-17 19:13 180 11.1
2017-Nov-17 19:09 180 11.7
2017-Nov-17 19:03 180 12.2
2017-Nov-17 18:59 180 12.2
2017-Nov-17 18:53 135 13.3
2017-Nov-17 18:49 180 13.3
2017-Nov-17 18:45 045 13.9
2017-Nov-17 18:39 045 14.4
2017-Nov-17 18:35 045 14.4
2017-Nov-17 18:28 045 15.0
2017-Nov-17 18:24 045 15.0
2017-Nov-17 18:18 067 15.0
2017-Nov-17 18:12 090 15.0
2017-Nov-17 18:08 045 15.6
2017-Nov-17 18:04 045 15.6
2017-Nov-17 17:56 045 15.6
2017-Nov-17 17:54 045 15.6
2017-Nov-17 17:48 045 16.1
2017-Nov-17 16:49 21.1
2017-Nov-17 16:30 22.2
2017-Nov-17 16:24 315 22.2
2017-Nov-17 16:00 22.2
2017-Nov-17 15:58 22.2
2017-Nov-17 15:54 157 1 gusting 1 22.2
2017-Nov-17 15:50 22.2
2017-Nov-17 15:44 157 0 gusting 1 22.2
2017-Nov-17 15:40 157 0 gusting 2 22.2
2017-Nov-17 15:33 315 0 gusting 2 22.2
2017-Nov-17 15:29 303 0 gusting 1 22.2
2017-Nov-17 15:23 270 1 gusting 1 22.8
2017-Nov-17 15:19 270 0 gusting 1 22.2
2017-Nov-17 15:13 22.8
2017-Nov-17 15:09 270 2 gusting 3 22.8
2017-Nov-17 15:03 303 0 gusting 2 22.2
2017-Nov-17 14:59 022 1 gusting 2 22.2
2017-Nov-17 14:53 157 1 gusting 2 22.8
2017-Nov-17 14:49 348 0 gusting 2 22.8
2017-Nov-17 14:45 157 2 gusting 2 22.8
2017-Nov-17 14:39 270 1 gusting 1 22.2
2017-Nov-17 14:34 337 22.2
2017-Nov-17 14:28 337 22.2
2017-Nov-17 14:24 157 0 gusting 2 22.2
2017-Nov-17 14:18 157 0 gusting 2 22.2
2017-Nov-17 14:14 157 0 gusting 2 22.2
2017-Nov-17 12:30 303 1 gusting 3 18.9
2017-Nov-17 12:24 18.3
2017-Nov-17 09:15 270 1 gusting 2 7.2
2017-Nov-17 09:13 157 2 gusting 2 7.2
2017-Nov-17 09:09 157 1 gusting 2 7.2
2017-Nov-17 09:03 270 7.8
2017-Nov-17 08:59 202 7.8
2017-Nov-17 08:55 180 7.2
2017-Nov-17 08:42 180 6.1
2017-Nov-17 08:38 135 5.6
2017-Nov-17 08:34 135 5.0
2017-Nov-17 08:28 135 4.4
2017-Nov-17 08:24 135 3.9
2017-Nov-17 08:18 135 2.8
2017-Nov-17 08:14 135 2.8
2017-Nov-17 08:08 135 2.2
2017-Nov-17 08:04 135 2.2
2017-Nov-17 08:00 135 2.2
2017-Nov-17 07:54 135 2.2
2017-Nov-17 07:49 135 1.7
2017-Nov-17 07:43 135 1.7
2017-Nov-17 07:39 135 1.7
2017-Nov-17 07:33 135 1.7
2017-Nov-17 07:29 135 1.7
2017-Nov-17 07:23 135 1.7
2017-Nov-17 07:19 135 1.7
2017-Nov-17 07:13 135 2.2
2017-Nov-17 07:09 135 2.2
2017-Nov-17 07:05 135 2.2
2017-Nov-17 06:59 135 2.2
2017-Nov-17 06:53 135 2.2
2017-Nov-17 06:48 135 2.2
2017-Nov-17 06:44 135 2.2
2017-Nov-17 06:38 135 2.2
2017-Nov-17 06:34 135 2.2
2017-Nov-17 06:28 135 2.2
2017-Nov-17 06:24 135 2.2
2017-Nov-17 06:16 135 2.8
2017-Nov-17 06:14 135 2.8
2017-Nov-17 06:08 135 2.8
2017-Nov-17 06:04 135 2.8
2017-Nov-17 06:00 135 2.8
2017-Nov-17 05:54 135 2.8
2017-Nov-17 05:49 135 2.8
2017-Nov-17 05:43 135 2.8
2017-Nov-17 05:39 135 2.8
2017-Nov-17 05:33 135 2.8
2017-Nov-17 05:29 135 2.8
2017-Nov-17 05:23 135 2.8
2017-Nov-17 05:19 135 2.8
2017-Nov-17 05:13 135 2.8
2017-Nov-17 05:09 135 2.8
2017-Nov-17 05:05 135 2.8
2017-Nov-17 04:59 135 2.8
2017-Nov-17 04:55 090 2.8
2017-Nov-17 04:48 090 2.8
2017-Nov-17 04:44 090 2.8
2017-Nov-17 04:38 270 2.8
2017-Nov-17 04:34 270 2.8
2017-Nov-17 04:28 270 2.8
2017-Nov-17 04:24 270 2.8
2017-Nov-17 04:18 270 2.8
2017-Nov-17 04:14 270 2.8
2017-Nov-17 04:08 270 2.8
2017-Nov-17 04:04 270 2.8
2017-Nov-17 04:00 270 2.8
2017-Nov-17 03:53 270 3.3
2017-Nov-17 03:49 270 3.3
2017-Nov-17 03:43 270 3.3
2017-Nov-17 03:39 270 3.3
2017-Nov-17 03:33 270 3.9
2017-Nov-17 03:29 270 3.9
2017-Nov-17 03:23 3.9
2017-Nov-17 03:19 270 3.9
2017-Nov-17 03:13 4.4
2017-Nov-17 03:09 045 4.4
2017-Nov-17 03:05 135 4.4